Weather History for Montreal Mirabel, QC

Change the Weather History Date:

Wednesday, January 1, 2014

  Actual Average Record
Temperature  
Mean Temperature -8 °F -  
Max Temperature 0 °F 22 °F 41 °F (2005)
Min Temperature -16 °F 8 °F -16 °F (1998)
Degree Days  
Heating Degree Days 73    
Moisture  
Dew Point -16 °F    
Average Humidity 64    
Maximum Humidity 78    
Minimum Humidity 43    
Precipitation  
Precipitation 0.00 in - - ()
Sea Level Pressure  
Sea Level Pressure 30.38 in    
Wind  
Wind Speed 5 mph ()    
Max Wind Speed 14 mph    
Max Gust Speed 21 mph    
Visibility 16.7 miles    
Events      
Averages and records for this station are not official NWS values.
T = Trace of Precipitation, MM = Missing Value Source: Averaged Metar Reports

Daily Weather History Graph

Daily Weather History Graph

Search for Another Location

Airport:

Trip Planner

Search our weather history database for the weather conditions in past years. The results will help you decide how hot, cold, wet, or windy it might be!

Date:

Astronomy

Jan. 01, 2014 Rise Set
Actual Time 7:36 AM EST 4:22 PM EST
Civil Twilight 7:02 AM EST 4:56 PM EST
Nautical Twilight 6:25 AM EST 5:34 PM EST
Astronomical Twilight 5:49 AM EST 6:10 PM EST
Moon 7:21 AM EST (1/1) 5:08 PM EST (1/1)
Length of Visible Light 9h 54m
Length of Day
8h 45m
New Moon, 0% of the Moon is Illuminated
Jan 1
New Moon
Jan 7
First Quarter
Jan 15
Full
Jan 24
Last Quarter
Jan 30
New

Hourly Weather History & Observations

Time (EST) Temp. Windchill Dew Point Humidity Pressure Visibility Wind Dir Wind Speed Gust Speed Precip Events Conditions
12:00 AM -4.0 °F -14.6 °F -9.4 °F 78% 30.15 in 25.0 mi WSW 4.6 mph - N/A   Partly Cloudy
1:00 AM -7.6 °F -20.6 °F -13.0 °F 77% 30.16 in 25.0 mi WSW 5.8 mph - N/A   Mostly Cloudy
2:00 AM -5.8 °F -18.4 °F -11.2 °F 77% 30.19 in 25.0 mi WSW 5.8 mph - N/A   Overcast
3:00 AM -5.8 °F -16.7 °F -11.2 °F 77% 30.21 in 25.0 mi West 4.6 mph - N/A   Overcast
4:00 AM -4.0 °F -16.3 °F -9.4 °F 78% 30.22 in 25.0 mi WSW 5.8 mph - N/A   Overcast
5:00 AM -5.8 °F -18.4 °F -11.2 °F 77% 30.24 in 25.0 mi West 5.8 mph - N/A   Scattered Clouds
6:00 AM -5.8 °F -19.9 °F -11.2 °F 77% 30.27 in 25.0 mi WSW 6.9 mph - N/A   Partly Cloudy
7:00 AM -7.6 °F -18.8 °F -13.0 °F 77% 30.29 in 15.0 mi WSW 4.6 mph - N/A   Partly Cloudy
8:00 AM -9.4 °F -22.7 °F -16.6 °F 71% 30.32 in 15.0 mi WSW 5.8 mph - N/A   Partly Cloudy
9:00 AM -5.8 °F -18.4 °F -11.2 °F 77% 30.34 in 20.0 mi WSW 5.8 mph - N/A   Partly Cloudy
10:00 AM -4.0 °F -14.6 °F -11.2 °F 71% 30.38 in 25.0 mi WSW 4.6 mph - N/A   Partly Cloudy
11:00 AM -0.4 °F -13.4 °F -9.4 °F 66% 30.40 in 25.0 mi West 6.9 mph - N/A   Partly Cloudy
12:00 PM -0.4 °F -15.7 °F -14.8 °F 51% 30.40 in 25.0 mi West 9.2 mph - N/A   Partly Cloudy
1:00 PM -0.4 °F -19.2 °F -16.6 °F 46% 30.41 in 25.0 mi West 13.8 mph 20.7 mph N/A   Partly Cloudy
2:00 PM -0.4 °F -15.7 °F -18.4 °F 43% 30.43 in 25.0 mi WNW 9.2 mph 18.4 mph N/A   Partly Cloudy
3:00 PM -2.2 °F -16.8 °F -18.4 °F 46% 30.44 in 25.0 mi NW 8.1 mph - N/A   Partly Cloudy
4:00 PM -4.0 °F -16.3 °F -18.4 °F 50% 30.47 in 25.0 mi NW 5.8 mph - N/A   Scattered Clouds
5:00 PM -7.6 °F -20.6 °F -22.0 °F 50% 30.49 in 25.0 mi NW 5.8 mph - N/A   Scattered Clouds
6:00 PM -7.6 °F -23.4 °F -22.0 °F 50% 30.51 in 25.0 mi NW 8.1 mph - N/A   Scattered Clouds
7:00 PM -9.4 °F -18.6 °F -23.8 °F 49% 30.53 in 25.0 mi NW 3.5 mph - N/A   Partly Cloudy
8:00 PM -13.0 °F -22.7 °F -23.8 °F 59% 30.54 in 25.0 mi WNW 3.5 mph - N/A   Clear
9:00 PM -16.6 °F -29.3 °F -25.6 °F 64% 30.55 in 25.0 mi NNW 4.6 mph - N/A   Scattered Clouds
10:00 PM -14.8 °F -27.2 °F -25.6 °F 58% 30.55 in 25.0 mi NNW 4.6 mph - N/A   Mostly Cloudy
11:00 PM -14.8 °F -24.8 °F -25.6 °F 58% 30.55 in 25.0 mi North 3.5 mph - N/A   Overcast